STARLINK-32412, 61680

Orbit data source: Space-Track

STARLINK-32412, 61680 is a payload satellite owned by SpaceX/Seattle (US) in LEO that was launched on Sat, 26 Oct 2024 UTC via an FALCON 9 launch vehicle from the Air Force Eastern Test Range (AFETR). Payloads include a variety of satellites, spacecraft, and rockets equipped with specific instruments for various scientific and technological missions. These include communications satellites like Starlink; space stations such as the ISS; scientific satellites like the Hubble; Earth observation satellites from companies like Planet Labs, Umbra, and HawkEye 360; GPS; miniature CubeSats for education and research; and military/defense satellites.

Loading next visibility...
STARLINK-32412 details
Identifier
61680, 2024-193V
Orbit
LEO
Last TLE update1 day ago
Origin
Flag of USSpaceX/Seattle (US)
ManufacturerSpaceX/Seattle
MissionOperational spacecraft
Bus & MotorSTARLINK V2M, Unknown motor
Mass730 kg wet, ~700 kg dry
Launch date (UTC)
2024-10-26 (1 month ago)
Launch vehicle
FALCON 9
Launch site
Air Force Eastern Test Range (AFETR)
Object type
Payload
Rocket body
Debris
Shape & HBRUnknown
Radar Cross SectionLarge (>1 m²)

Expand to show TLE details & history

TLE from 1 day ago
0 STARLINK-32412
1 61680U 24193V   24336.05275201 -.00000342  00000-0  14225-5 0  9999
2 61680  53.1621  87.9679 0001082  82.8391 277.2737 15.39619283  6715
Epoch: 2024-12-01T01:15Z
Definitive object data (Epoch: 2024-12-01T01:15:57.773Z)
Latitude-0.00002°
Longitude-1.41933°
Altitude448.044 km
Speed7.645 km/s
True Right ascension05h 51m 52s
True Declination0° 00' 00"
Sunlit
Object was in full shadow at TLE epoch
Visualization TLE readout
Latitude37.97663°
Longitude136.18022°
Altitude449.857 km
Speed7.648 km/s
Apparent Right ascension18h 14m 00s
Apparent Declination0° 58' 24"
Sunlit
Object is in daylight
Visualization observer readout
Local Sidereal Time09:52:59
Azimuth64.851° ENE
Elevation-25.577°
Doppler factor1
Orbital elements
Apogee altitude448.23 km
Perigee altitude446.753 km
Semi-major axis6,825.628 km
Eccentricity0.0001082
Inclination53.1621°
RAAN87.9679°
Arg. of periapsis82.8391°
True anomaly277.2614°
Mean anomaly277.2737°
Eccentric anomaly277.26755°
Mean motion3.84883 °/min
BSTAR0.0000014225
Orbital period93.53 mins
Loading maneuver chart data...
Loading historical data...
Loading historical data...
Loading historical data...
Loading historical data...
Loading historical data...
Loading historical data...
Loading historical data...

STARLINK-32412 Visibility forecast

Observer location: undefined°, undefined

Span
Click to sort rows by Start time (UTC) header in descending order
Start Az.
Max El. time (UTC)
Max El. Az.
Max El.
End time (UTC)
End Az.
5 mins2024-12-02 16:43:09.773Z319.118° NNW2024-12-02 16:45:09.773Z24.891° NE42.606°2024-12-02 16:48:09.773Z120.665° SE
5 mins2024-12-03 09:32:09.773Z210.606° SW2024-12-03 09:34:09.773Z146.504° SSE40.571°2024-12-03 09:37:09.773Z58.473° ENE
4 mins2024-12-03 11:10:09.773Z297.366° NW2024-12-03 11:12:09.773Z343.523° N19.553°2024-12-03 11:14:09.773Z21.591° NNE
|